Location: Clyde
(45.1830°S, 169.3170°E)
Time: 06:10:34
(UTC+12:00)

Nadezhda 4 Rocket - Pass Details

Date: 14 May 2021
Orbit: 948 x 993 km, 82.9° (Epoch: 19 June)

Event Time Altitude Azimuth Distance (km) Brightness Sun altitude
Rises 17:46:26 0° 6° (N) 3,613 7.2 -4.3°
Reaches altitude 10° 17:48:56 10° 9° (N) 2,678 6.5 -4.7°
Maximum altitude 17:54:56 61° 87° (E) 1,091 4.1 -5.7°
Drops below altitude 10° 18:01:04 10° 165° (SSE) 2,731 6.0 -6.7°
Sets 18:03:38 0° 168° (SSE) 3,690 6.7 -7.1°
